Location: Br�ttisellen
(47.4227°N, 8.6287°E)
Time: 01:51:15
(UTC+00:00)

Abrixas rocket - Pass Details

Date: 09 April 2020
Orbit: 344 x 351 km, 48.4° (Epoch: 03 June)

Event Time Altitude Azimuth Distance (km) Brightness Sun altitude
Rises 19:52:20 0° 283° (WNW) 2,169 7.2 -17.2°
Reaches altitude 10° 19:54:26 10° 274° (W) 1,326 5.7 -17.5°
Maximum altitude 19:57:11 34° 207° (SSW) 604 2.9 -17.8°
Enters shadow 19:57:12 34° 205° (SSW) 604 2.9 -17.8°
